Regional Weather Roundup
Issued by NWS

Home | Current Version | Previous Version | Graphics & Text | Print | Product List | Glossary On
Versions: 1 2 3 4 5 6 7 8 9 10 11 12 13 14 15 16 17 18 19 20 21 22 23 24 25 26 27 28 29 30 31 32 33 34 35 36 37 38 39 40 41 42 43 44 45 46 47 48 49 50
000
ASUS43 KLMK 011102
RWRKY
KENTUCKY REGIONAL WEATHER ROUNDUP
NATIONAL WEATHER SERVICE LOUISVILLE KY
600 AM EST SUN MAR 01 2015

NOTE "FAIR" INDICATES FEW OR NO CLOUDS BELOW 12,000 FEET
WITH NO SIGNIFICANT WEATHER AND/OR OBSTRUCTIONS TO VISIBILITY.

KYZ001>023-026-027-061>063-070>075-011200-
WESTERN AND SOUTH CENTRAL KENTUCKY

CITY           SKY/WX    TMP DP  RH WIND       PRES   REMARKS
PADUCAH        LGT RAIN  33  26  75 NE3       30.37R
HENDERSON      CLOUDY    32  23  69 SE9       30.37F WCI  24
OWENSBORO      MIX PCPN  33  24  70 E7        30.40S WCI  27
HOPKINSVILLE   CLOUDY    35  26  70 NE3       30.36S
BOWLING GREEN  CLOUDY    36  28  73 CALM      30.38S
GLASGOW        NOT AVBL
$$

KYZ024-025-028>034-038-045-046-053-011200-
NORTH CENTRAL KENTUCKY

CITY           SKY/WX    TMP DP  RH WIND       PRES   REMARKS
LOUISVILLE/SDF FLURRIES  31  25  78 N6        30.41S WCI  25
LOUISVILLE/LOU CLOUDY    31  25  78 N3        30.42R
FORT KNOX      MIX PCPN  31  26  83 N6        30.38R WCI  25
$$

KYZ035>037-039>044-047>052-055>060-089>105-011200-
NORTHEAST KENTUCKY

CITY           SKY/WX    TMP DP  RH WIND       PRES   REMARKS
LEXINGTON      LGT RAIN  33  25  72 SE7       30.39R WCI  27
COVINGTON      LGT SNOW  28  24  85 CALM      30.40R FOG
FRANKFORT        N/A     31  23  72 NE3       30.38R
$$

KYZ054-064>069-076>088-106>120-011200-
SOUTHEAST KENTUCKY

CITY           SKY/WX    TMP DP  RH WIND       PRES   REMARKS
JACKSON        LGT RAIN  36  24  62 SE3       30.38R
LONDON         CLOUDY    37  25  61 CALM      30.39R
SOMERSET       NOT AVBL
MIDDLESBORO    NOT AVBL
MONTICELLO     CLOUDY    44  34  68 S7        30.42S
$$



USA.gov is the U.S. government's official web portal to all federal, state and local government web resources and services.